This is the latest recevied weather packets stored in our database for station/object WA0GMH-1. If no packets are shown the sender has not sent any weather packets the latest 10 day(s).
| Time | Temp. | Humidity | Pressure | Rain* | Wind** | Luminosity | Snow |
|---|---|---|---|---|---|---|---|
| 1777655216 | 10.56° C | 7% | 1020.2 hPa | 0 mm | - | - | - |
| 1777654815 | 10.56° C | 6% | 1020.1 hPa | 0 mm | - | - | - |
| 1777654412 | 10° C | 6% | 1020.1 hPa | 0 mm | - | - | - |
| 1777654010 | 10° C | 5% | 1020.1 hPa | 0 mm | - | - | - |
| 1777653608 | 10° C | 10% | 1020.2 hPa | 0 mm | - | - | - |
| 1777653206 | 9.44° C | 12% | 1020.2 hPa | 0 mm | - | - | - |
| 1777652803 | 9.44° C | 12% | 1020.2 hPa | 0 mm | - | - | - |
| 1777652401 | 9.44° C | 15% | 1020.1 hPa | 0 mm | - | - | - |
| 1777651999 | 8.89° C | 13% | 1020.3 hPa | 0 mm | - | - | - |
| 1777651597 | 8.89° C | 15% | 1020 hPa | 0 mm | - | - | - |
| 1777651194 | 8.89° C | 17% | 1019.8 hPa | 0 mm | - | - | - |
| 1777650792 | 8.33° C | 20% | 1019.8 hPa | 0 mm | - | - | - |
| 1777650390 | 8.33° C | 20% | 1019.8 hPa | 0 mm | - | - | - |
| 1777649988 | 8.33° C | 21% | 1020 hPa | 0 mm | - | - | - |
| 1777649585 | 7.78° C | 25% | 1019.9 hPa | 0 mm | - | - | - |
| 1777649183 | 7.78° C | 26% | 1020 hPa | 0 mm | - | - | - |
| 1777648781 | 7.78° C | 24% | 1020 hPa | 0 mm | - | - | - |
| 1777648379 | 7.22° C | 29% | 1020 hPa | 0 mm | - | - | - |
| 1777647976 | 7.22° C | 32% | 1019.9 hPa | 0 mm | - | - | - |
| 1777647574 | 7.22° C | 32% | 1020 hPa | 0 mm | - | - | - |
| 1777647172 | 6.67° C | 34% | 1020 hPa | 0 mm | - | - | - |
| 1777646770 | 6.67° C | 36% | 1020.2 hPa | 0 mm | - | - | - |
| 1777646367 | 6.11° C | 42% | 1019.9 hPa | 0 mm | - | - | - |
| 1777645965 | 6.11° C | 44% | 1019.7 hPa | 0 mm | - | - | - |
| 1777645563 | 5.56° C | 45% | 1019.8 hPa | 0 mm | - | - | - |
* Rain since midnight (hover to see other rain measurements)
** Current wind speed in m/s (hover to see current wind gust speed)